RYR42MV EGSS-GCLP

Flight info

Callsign RYR42MV
Flight time N/A
Altitude 33000
Route NUGBO M183 SILVA Q41 SAM M195 MARUK/N0456F370 M195 LORKU DCT POZOF DCT BALDA DCT BATAX DCT ORVED DCT ODPAK DCT OSLAD UR724 IBALU UN857 TERTO
Aircraft B38M/M-SDE1FGHILORVWXY/HB1

Departure

Time N/A
Airport London Stansted Airport (EGSS)

Arrival

Time 2026-04-28 16:10
Airport Gran Canaria Airport (GCLP)
Time Latitude Longitude Altitude Speed Heading
2026-04-28 13:27 44.35939 -5.64767 37031 ft 447 kts 198°
2026-04-28 13:28 44.32942 -5.65915 37033 ft 447 kts 198°
2026-04-28 13:28 44.26965 -5.68203 37028 ft 446 kts 198°
2026-04-28 13:29 44.21011 -5.70475 37025 ft 445 kts 198°
2026-04-28 13:29 44.15038 -5.72751 37028 ft 445 kts 198°
2026-04-28 13:30 44.09059 -5.75024 37024 ft 445 kts 198°
2026-04-28 13:30 44.03074 -5.77295 37022 ft 445 kts 198°
2026-04-28 13:31 43.94158 -5.80669 37015 ft 444 kts 198°
2026-04-28 13:31 43.88233 -5.82905 37016 ft 444 kts 197°
2026-04-28 13:32 43.82268 -5.85152 37006 ft 444 kts 197°
2026-04-28 13:32 43.76303 -5.87394 37003 ft 444 kts 197°
2026-04-28 13:33 43.70342 -5.89630 36994 ft 444 kts 197°
2026-04-28 13:33 43.64380 -5.91862 36991 ft 444 kts 197°
2026-04-28 13:34 43.58422 -5.94087 36995 ft 444 kts 197°
2026-04-28 13:34 43.52461 -5.96309 36992 ft 443 kts 197°
2026-04-28 13:35 43.46491 -5.98530 36989 ft 444 kts 197°
2026-04-28 13:35 43.40527 -6.00744 36993 ft 444 kts 197°
2026-04-28 13:36 43.34601 -6.02940 37002 ft 444 kts 197°
2026-04-28 13:36 43.28631 -6.05147 36987 ft 444 kts 197°
2026-04-28 13:37 43.22666 -6.07348 36984 ft 444 kts 197°
2026-04-28 13:37 43.16696 -6.09546 36990 ft 445 kts 197°
2026-04-28 13:38 43.10705 -6.11749 36975 ft 445 kts 197°
2026-04-28 13:38 43.04722 -6.13943 36972 ft 445 kts 197°
2026-04-28 13:39 42.98726 -6.16137 36956 ft 446 kts 197°
2026-04-28 13:39 42.92769 -6.18313 36942 ft 446 kts 196°
2026-04-28 13:40 42.86779 -6.20497 36940 ft 446 kts 196°
2026-04-28 13:40 42.81784 -6.22315 36932 ft 447 kts 196°
2026-04-28 13:41 42.74748 -6.24870 36930 ft 447 kts 196°
2026-04-28 13:41 42.68771 -6.27035 36922 ft 447 kts 196°
2026-04-28 13:42 42.62752 -6.29212 36911 ft 447 kts 196°
2026-04-28 13:42 42.56732 -6.31385 36914 ft 447 kts 196°
2026-04-28 13:43 42.50703 -6.33556 36908 ft 447 kts 196°
2026-04-28 13:43 42.44736 -6.35701 36909 ft 447 kts 196°
2026-04-28 13:44 42.38742 -6.37852 36913 ft 447 kts 196°
2026-04-28 13:44 42.32766 -6.39991 36916 ft 447 kts 196°
2026-04-28 13:45 42.26798 -6.42124 36912 ft 446 kts 196°
2026-04-28 13:45 42.20802 -6.44263 36914 ft 445 kts 196°
2026-04-28 13:46 42.14795 -6.46276 36911 ft 444 kts 194°
2026-04-28 13:46 42.10784 -6.47585 36906 ft 444 kts 195°
2026-04-28 13:47 41.96674 -6.52201 36903 ft 444 kts 195°
2026-04-28 13:48 41.91711 -6.53821 36901 ft 444 kts 195°
2026-04-28 13:48 41.85735 -6.55770 36903 ft 444 kts 195°
2026-04-28 13:49 41.79733 -6.57720 36895 ft 444 kts 195°
2026-04-28 13:49 41.73737 -6.59665 36887 ft 444 kts 195°
2026-04-28 13:50 41.67761 -6.61599 36888 ft 443 kts 195°
2026-04-28 13:50 41.61772 -6.63534 36885 ft 443 kts 195°
2026-04-28 13:51 41.55798 -6.65461 36881 ft 443 kts 195°
2026-04-28 13:51 41.49810 -6.67389 36886 ft 443 kts 195°
2026-04-28 13:52 41.43822 -6.69313 36887 ft 443 kts 194°
2026-04-28 13:52 41.37837 -6.71232 36879 ft 442 kts 194°
2026-04-28 13:53 41.31844 -6.73151 36879 ft 442 kts 194°
2026-04-28 13:53 41.25857 -6.75064 36881 ft 442 kts 194°
2026-04-28 13:54 41.19875 -6.76971 36879 ft 442 kts 194°
2026-04-28 13:54 41.13938 -6.78861 36885 ft 442 kts 194°
2026-04-28 13:55 41.07951 -6.80763 36882 ft 442 kts 194°
2026-04-28 13:55 41.01970 -6.82660 36887 ft 441 kts 194°
2026-04-28 13:56 40.96014 -6.84545 36887 ft 441 kts 194°
2026-04-28 13:56 40.90006 -6.86443 36882 ft 441 kts 194°
2026-04-28 13:57 40.84028 -6.88328 36891 ft 441 kts 194°
2026-04-28 13:57 40.78096 -6.90196 36892 ft 441 kts 194°
2026-04-28 13:58 40.72125 -6.92071 36894 ft 441 kts 194°
2026-04-28 13:58 40.69135 -6.93010 36706 ft 443 kts 193°
2026-04-28 13:58 40.66112 -6.93958 36809 ft 445 kts 193°
2026-04-28 13:59 40.63096 -6.94902 36969 ft 445 kts 193°
2026-04-28 13:59 40.60111 -6.95836 37018 ft 447 kts 193°
2026-04-28 13:59 40.54018 -6.97740 37004 ft 453 kts 193°
2026-04-28 14:00 40.47822 -6.99672 37001 ft 459 kts 193°
2026-04-28 14:00 40.41566 -7.01619 37000 ft 465 kts 193°
2026-04-28 14:01 40.35263 -7.03577 37000 ft 466 kts 193°
2026-04-28 14:01 40.28955 -7.05533 37000 ft 466 kts 193°
2026-04-28 14:02 40.22692 -7.07472 37000 ft 466 kts 193°
2026-04-28 14:02 40.16381 -7.09421 37001 ft 466 kts 193°
2026-04-28 14:03 40.10072 -7.11366 37000 ft 466 kts 193°
2026-04-28 14:03 40.03766 -7.13306 37001 ft 466 kts 193°
2026-04-28 14:04 39.97447 -7.15247 37000 ft 466 kts 193°
2026-04-28 14:04 39.91125 -7.17185 37000 ft 466 kts 193°
2026-04-28 14:05 39.84842 -7.19108 37000 ft 466 kts 193°
2026-04-28 14:05 39.78525 -7.21037 37001 ft 466 kts 193°
2026-04-28 14:06 39.72214 -7.22960 37000 ft 466 kts 193°
2026-04-28 14:06 39.65895 -7.24883 37001 ft 466 kts 193°
2026-04-28 14:07 39.59585 -7.26799 37001 ft 466 kts 193°
2026-04-28 14:07 39.53308 -7.28702 37000 ft 466 kts 193°
2026-04-28 14:08 39.46998 -7.30611 37001 ft 466 kts 193°
2026-04-28 14:08 39.40681 -7.32518 37000 ft 466 kts 193°
2026-04-28 14:09 39.34371 -7.34420 37002 ft 466 kts 193°
2026-04-28 14:09 39.28053 -7.36321 37002 ft 466 kts 193°
2026-04-28 14:10 39.21733 -7.38219 37000 ft 466 kts 193°
2026-04-28 14:10 39.15421 -7.40111 37000 ft 466 kts 193°
2026-04-28 14:11 39.09099 -7.42002 37001 ft 466 kts 193°
2026-04-28 14:11 39.02795 -7.43885 37000 ft 466 kts 193°
2026-04-28 14:12 38.96533 -7.45751 37000 ft 466 kts 193°
2026-04-28 14:12 38.90218 -7.47631 37000 ft 466 kts 193°
2026-04-28 14:13 38.87097 -7.48558 37130 ft 450 kts 193°
2026-04-28 14:13 38.84085 -7.49453 37113 ft 441 kts 193°
2026-04-28 14:13 38.78128 -7.51219 37062 ft 439 kts 193°
2026-04-28 14:14 38.72166 -7.52983 37055 ft 439 kts 193°
2026-04-28 14:14 38.66205 -7.54745 37054 ft 440 kts 193°
2026-04-28 14:15 38.60244 -7.56503 37060 ft 440 kts 193°
2026-04-28 14:15 38.54273 -7.58262 37061 ft 440 kts 193°
2026-04-28 14:16 38.48305 -7.60016 37062 ft 440 kts 193°
2026-04-28 14:16 38.42375 -7.61756 37067 ft 440 kts 193°
2026-04-28 14:17 38.36409 -7.63504 37064 ft 440 kts 193°
2026-04-28 14:17 38.30427 -7.65254 37068 ft 440 kts 193°
2026-04-28 14:18 38.24447 -7.67000 37063 ft 440 kts 193°
2026-04-28 14:18 38.18512 -7.68730 37064 ft 440 kts 193°
2026-04-28 14:19 38.12528 -7.70472 37060 ft 440 kts 193°
2026-04-28 14:19 38.06554 -7.72207 37060 ft 440 kts 193°
2026-04-28 14:20 38.00578 -7.73941 37063 ft 441 kts 193°
2026-04-28 14:20 37.94593 -7.75673 37059 ft 441 kts 193°
2026-04-28 14:21 37.88611 -7.77403 37064 ft 441 kts 193°
2026-04-28 14:21 37.82629 -7.79129 37068 ft 441 kts 193°
2026-04-28 14:22 37.76684 -7.80842 37079 ft 441 kts 193°
2026-04-28 14:22 37.70723 -7.82557 37085 ft 441 kts 193°
2026-04-28 14:23 37.64728 -7.84278 37081 ft 441 kts 193°
2026-04-28 14:23 37.58748 -7.85992 36995 ft 440 kts 193°
2026-04-28 14:24 37.55770 -7.86845 36882 ft 438 kts 193°
2026-04-28 14:24 37.52794 -7.87696 36884 ft 438 kts 193°
2026-04-28 14:24 37.46833 -7.89400 36889 ft 440 kts 193°
2026-04-28 14:25 37.40900 -7.91092 36887 ft 440 kts 193°
2026-04-28 14:25 37.34936 -7.92791 36888 ft 440 kts 193°
2026-04-28 14:26 37.28966 -7.94489 36878 ft 440 kts 193°
2026-04-28 14:26 37.22989 -7.96185 36875 ft 440 kts 193°
2026-04-28 14:27 37.17017 -7.97878 36860 ft 440 kts 193°
2026-04-28 14:27 37.11040 -7.99569 36857 ft 440 kts 193°
2026-04-28 14:28 37.05090 -8.01250 36854 ft 440 kts 193°
2026-04-28 14:28 36.99113 -8.02936 36855 ft 440 kts 193°
2026-04-28 14:29 36.93143 -8.04617 36857 ft 440 kts 193°
2026-04-28 14:29 36.87126 -8.06309 36861 ft 441 kts 193°
2026-04-28 14:30 36.81180 -8.07978 36866 ft 441 kts 193°
2026-04-28 14:30 36.75186 -8.09658 36863 ft 441 kts 193°
2026-04-28 14:31 36.69197 -8.11333 36867 ft 441 kts 193°
2026-04-28 14:31 36.63208 -8.13006 36864 ft 441 kts 193°
2026-04-28 14:32 36.58223 -8.14397 36860 ft 441 kts 193°
2026-04-28 14:32 36.52234 -8.16065 36860 ft 441 kts 193°
2026-04-28 14:33 36.46225 -8.17736 36862 ft 441 kts 193°
2026-04-28 14:33 36.40261 -8.19392 36860 ft 442 kts 193°
2026-04-28 14:34 36.31253 -8.21889 36862 ft 442 kts 193°
2026-04-28 14:35 36.25249 -8.23549 36863 ft 442 kts 193°
2026-04-28 14:35 36.19230 -8.25211 36863 ft 442 kts 193°
2026-04-28 14:36 36.13246 -8.26861 36862 ft 443 kts 193°
2026-04-28 14:36 36.07230 -8.28517 36867 ft 443 kts 193°
2026-04-28 14:37 36.01212 -8.30171 36869 ft 443 kts 193°
2026-04-28 14:37 35.95204 -8.31920 36872 ft 443 kts 195°
2026-04-28 14:38 35.89235 -8.33842 36869 ft 443 kts 195°
2026-04-28 14:38 35.83259 -8.35738 36876 ft 443 kts 195°
2026-04-28 14:39 35.77291 -8.37626 36874 ft 443 kts 195°
2026-04-28 14:39 35.71353 -8.39501 36882 ft 443 kts 195°
2026-04-28 14:40 35.65375 -8.41387 36885 ft 443 kts 195°
2026-04-28 14:40 35.59388 -8.43272 36889 ft 444 kts 195°
2026-04-28 14:41 35.53396 -8.45156 36891 ft 445 kts 195°
2026-04-28 14:41 35.47430 -8.47029 36889 ft 445 kts 195°
2026-04-28 14:42 35.41422 -8.48912 36896 ft 446 kts 195°
2026-04-28 14:42 35.35392 -8.50799 36897 ft 446 kts 195°
2026-04-28 14:43 35.29398 -8.52672 36908 ft 447 kts 195°
2026-04-28 14:43 35.23357 -8.54557 36901 ft 448 kts 195°
2026-04-28 14:44 35.17314 -8.56439 36907 ft 448 kts 195°
2026-04-28 14:44 35.11269 -8.58319 36905 ft 448 kts 195°
2026-04-28 14:45 35.05249 -8.60189 36901 ft 449 kts 195°
2026-04-28 14:45 34.99156 -8.62078 36901 ft 449 kts 195°
2026-04-28 14:46 34.93094 -8.63955 36916 ft 449 kts 195°
2026-04-28 14:46 34.87058 -8.65821 36914 ft 450 kts 195°
2026-04-28 14:47 34.80987 -8.67695 36918 ft 450 kts 195°
2026-04-28 14:47 34.74905 -8.69570 36912 ft 450 kts 195°
2026-04-28 14:48 34.68825 -8.71441 36918 ft 451 kts 195°
2026-04-28 14:48 34.62729 -8.73314 36919 ft 451 kts 195°
2026-04-28 14:49 34.56673 -8.75172 36923 ft 452 kts 195°
2026-04-28 14:49 34.50569 -8.77043 36917 ft 452 kts 195°
2026-04-28 14:50 34.44518 -8.79104 36905 ft 451 kts 205°
2026-04-28 14:50 34.41887 -8.81102 36918 ft 444 kts 224°
2026-04-28 14:50 34.39692 -8.83732 36929 ft 446 kts 226°
2026-04-28 14:51 34.34876 -8.88486 36931 ft 449 kts 213°
2026-04-28 14:51 34.29815 -8.92892 36926 ft 448 kts 222°
2026-04-28 14:52 34.24988 -8.97623 36926 ft 449 kts 219°
2026-04-28 14:52 34.20086 -9.02303 36927 ft 449 kts 219°
2026-04-28 14:53 34.15187 -9.06984 36931 ft 449 kts 220°
2026-04-28 14:53 34.10274 -9.11671 36929 ft 449 kts 220°
2026-04-28 14:54 34.05368 -9.16344 36935 ft 449 kts 220°
2026-04-28 14:54 34.00459 -9.21014 36933 ft 449 kts 220°
2026-04-28 14:55 33.95575 -9.25652 36931 ft 449 kts 220°
2026-04-28 14:55 33.90665 -9.30308 36933 ft 449 kts 220°
2026-04-28 14:56 33.85746 -9.34966 36940 ft 450 kts 220°
2026-04-28 14:56 33.80831 -9.39613 36939 ft 450 kts 220°
2026-04-28 14:57 33.75912 -9.44257 36940 ft 450 kts 220°
2026-04-28 14:57 33.70983 -9.48902 36939 ft 450 kts 220°
2026-04-28 14:58 33.66047 -9.53548 36942 ft 450 kts 220°
2026-04-28 14:58 33.61118 -9.58180 36944 ft 450 kts 220°
2026-04-28 14:59 33.56184 -9.62811 36945 ft 450 kts 220°
2026-04-28 14:59 33.51279 -9.67406 36950 ft 450 kts 220°
2026-04-28 15:00 33.46340 -9.72027 36948 ft 450 kts 220°
2026-04-28 15:00 33.41398 -9.76644 36948 ft 450 kts 220°
2026-04-28 15:01 33.36458 -9.81252 36951 ft 450 kts 220°
2026-04-28 15:01 33.31516 -9.85855 36951 ft 451 kts 220°
2026-04-28 15:02 33.26565 -9.90460 36952 ft 451 kts 220°
2026-04-28 15:02 33.21613 -9.95058 36954 ft 451 kts 220°
2026-04-28 15:03 33.16690 -9.99624 36955 ft 451 kts 220°
2026-04-28 15:03 33.11727 -10.04221 36946 ft 452 kts 220°
2026-04-28 15:04 33.06752 -10.08823 36951 ft 453 kts 221°
2026-04-28 15:04 33.01761 -10.13429 36948 ft 453 kts 221°
2026-04-28 15:05 32.96767 -10.18024 36946 ft 454 kts 221°
2026-04-28 15:05 32.91771 -10.22616 36948 ft 454 kts 221°
2026-04-28 15:06 32.86804 -10.27175 36946 ft 454 kts 221°
2026-04-28 15:06 32.81790 -10.31771 36950 ft 454 kts 221°
2026-04-28 15:07 32.76779 -10.36357 36955 ft 454 kts 221°
2026-04-28 15:07 32.71765 -10.40940 36947 ft 455 kts 221°
2026-04-28 15:08 32.66747 -10.45519 36955 ft 455 kts 221°
2026-04-28 15:08 32.61722 -10.50098 36949 ft 455 kts 221°
2026-04-28 15:09 32.56692 -10.54675 36948 ft 455 kts 221°
2026-04-28 15:09 32.51661 -10.59246 36961 ft 455 kts 221°
2026-04-28 15:10 32.46631 -10.63810 36959 ft 455 kts 221°
2026-04-28 15:10 32.41628 -10.68342 36957 ft 455 kts 221°
2026-04-28 15:11 32.36588 -10.72902 36958 ft 455 kts 221°
2026-04-28 15:11 32.31553 -10.77450 36960 ft 455 kts 221°
2026-04-28 15:12 32.26513 -10.81997 36961 ft 455 kts 221°
2026-04-28 15:12 32.21474 -10.86536 36963 ft 456 kts 221°
2026-04-28 15:13 32.16463 -10.91044 36963 ft 456 kts 221°
2026-04-28 15:13 32.11410 -10.95582 36963 ft 455 kts 221°
2026-04-28 15:14 32.06368 -11.00105 36966 ft 455 kts 221°
2026-04-28 15:14 32.01325 -11.04622 36968 ft 455 kts 221°
2026-04-28 15:15 31.96278 -11.09136 36968 ft 455 kts 221°
2026-04-28 15:15 31.91228 -11.13647 36969 ft 455 kts 221°
2026-04-28 15:16 31.86180 -11.18149 36971 ft 455 kts 221°
2026-04-28 15:16 31.81120 -11.22657 36972 ft 455 kts 221°
2026-04-28 15:17 31.76102 -11.27123 36971 ft 455 kts 221°
2026-04-28 15:17 31.71046 -11.31635 36974 ft 455 kts 221°
2026-04-28 15:18 31.65994 -11.36137 36975 ft 455 kts 221°
2026-04-28 15:18 31.61796 -11.39874 36974 ft 455 kts 221°
2026-04-28 15:19 31.55926 -11.45092 36974 ft 455 kts 221°
2026-04-28 15:19 31.50882 -11.49569 36978 ft 455 kts 221°
2026-04-28 15:20 31.46674 -11.53299 36975 ft 455 kts 221°
2026-04-28 15:20 31.41626 -11.57769 36974 ft 455 kts 221°
2026-04-28 15:21 31.36578 -11.62232 36979 ft 455 kts 221°
2026-04-28 15:21 31.31525 -11.66693 36977 ft 455 kts 221°
2026-04-28 15:22 31.26469 -11.71151 36982 ft 454 kts 221°
2026-04-28 15:22 31.21423 -11.75594 36976 ft 454 kts 221°
2026-04-28 15:23 31.16374 -11.80034 36979 ft 454 kts 221°
2026-04-28 15:23 31.11332 -11.84460 36981 ft 453 kts 221°
2026-04-28 15:24 31.06320 -11.88856 36981 ft 453 kts 221°
2026-04-28 15:24 31.01281 -11.93269 36986 ft 453 kts 221°
2026-04-28 15:25 30.96241 -11.97676 36985 ft 452 kts 221°
2026-04-28 15:25 30.91207 -12.02072 36986 ft 452 kts 221°
2026-04-28 15:26 30.86166 -12.06468 36984 ft 452 kts 221°
2026-04-28 15:26 30.81165 -12.10824 36999 ft 451 kts 221°
2026-04-28 15:27 30.76137 -12.15198 36983 ft 451 kts 221°
2026-04-28 15:27 30.71109 -12.19566 36993 ft 451 kts 221°
2026-04-28 15:28 30.66087 -12.23923 36992 ft 450 kts 221°
2026-04-28 15:28 30.61055 -12.28283 36986 ft 450 kts 221°
2026-04-28 15:29 30.56035 -12.32627 36990 ft 450 kts 221°
2026-04-28 15:29 30.51045 -12.36939 36995 ft 450 kts 221°
2026-04-28 15:30 30.46015 -12.41263 36991 ft 450 kts 221°
2026-04-28 15:30 30.40984 -12.45584 36991 ft 450 kts 221°
2026-04-28 15:31 30.35957 -12.49898 36996 ft 450 kts 221°
2026-04-28 15:31 30.30932 -12.54203 37002 ft 449 kts 221°
2026-04-28 15:32 30.25902 -12.58509 36997 ft 449 kts 221°
2026-04-28 15:32 30.20871 -12.62808 36998 ft 449 kts 221°
2026-04-28 15:33 30.15875 -12.67072 36998 ft 449 kts 221°
2026-04-28 15:33 30.10853 -12.71356 37000 ft 449 kts 221°
2026-04-28 15:34 30.05833 -12.75650 37001 ft 449 kts 221°
2026-04-28 15:34 30.00816 -12.79937 36995 ft 449 kts 221°
2026-04-28 15:35 29.95799 -12.84217 37004 ft 448 kts 221°
2026-04-28 15:35 29.88299 -12.90605 37008 ft 448 kts 221°
2026-04-28 15:36 29.83279 -12.94875 37008 ft 448 kts 221°
2026-04-28 15:36 29.78252 -12.99144 37013 ft 448 kts 221°
2026-04-28 15:37 29.73231 -13.03403 37006 ft 448 kts 221°
2026-04-28 15:37 29.68210 -13.07657 37007 ft 448 kts 221°
2026-04-28 15:38 29.63216 -13.11883 37012 ft 448 kts 221°
2026-04-28 15:38 29.58185 -13.16135 37014 ft 448 kts 221°
2026-04-28 15:39 29.53164 -13.20372 37016 ft 448 kts 221°
2026-04-28 15:39 29.48138 -13.24609 37014 ft 448 kts 220°
2026-04-28 15:40 29.43115 -13.28837 37019 ft 448 kts 220°
2026-04-28 15:40 29.38085 -13.33067 37014 ft 448 kts 220°
2026-04-28 15:41 29.33077 -13.37272 37016 ft 448 kts 220°
2026-04-28 15:41 29.28053 -13.41486 37014 ft 448 kts 220°
2026-04-28 15:42 29.23061 -13.45669 37022 ft 448 kts 220°
2026-04-28 15:42 29.18036 -13.49873 37021 ft 447 kts 220°
2026-04-28 15:43 29.13354 -13.54494 37016 ft 444 kts 225°
2026-04-28 15:43 29.08666 -13.59110 37020 ft 445 kts 224°
2026-04-28 15:44 29.04029 -13.63671 36595 ft 436 kts 225°
2026-04-28 15:44 29.01727 -13.65937 35833 ft 437 kts 225°
2026-04-28 15:44 28.99430 -13.68197 35282 ft 433 kts 225°
2026-04-28 15:45 28.97146 -13.70441 34556 ft 435 kts 225°
2026-04-28 15:45 28.94840 -13.72708 33718 ft 440 kts 225°
2026-04-28 15:45 28.92513 -13.74992 32870 ft 442 kts 225°
2026-04-28 15:45 28.90181 -13.77280 32207 ft 441 kts 225°
2026-04-28 15:46 28.87866 -13.79550 31671 ft 437 kts 225°
2026-04-28 15:46 28.85597 -13.81773 31139 ft 433 kts 225°
2026-04-28 15:46 28.83315 -13.84008 30613 ft 430 kts 225°
2026-04-28 15:46 28.81057 -13.86219 30109 ft 427 kts 225°
2026-04-28 15:47 28.78820 -13.88408 29537 ft 423 kts 224°
2026-04-28 15:47 28.76593 -13.90585 28978 ft 420 kts 224°
2026-04-28 15:47 28.74385 -13.92743 28426 ft 417 kts 224°
2026-04-28 15:47 28.72193 -13.94883 27904 ft 414 kts 224°
2026-04-28 15:48 28.70005 -13.97019 27388 ft 411 kts 224°
2026-04-28 15:48 28.67845 -13.99127 26881 ft 408 kts 224°
2026-04-28 15:48 28.65692 -14.01225 26405 ft 405 kts 224°
2026-04-28 15:48 28.63555 -14.03308 25907 ft 403 kts 224°
2026-04-28 15:49 28.61426 -14.05381 25433 ft 401 kts 224°
2026-04-28 15:49 28.59314 -14.07436 24963 ft 399 kts 224°
2026-04-28 15:49 28.57242 -14.09452 24501 ft 397 kts 224°
2026-04-28 15:49 28.55163 -14.11473 24059 ft 395 kts 224°
2026-04-28 15:50 28.53082 -14.13496 23597 ft 393 kts 224°
2026-04-28 15:50 28.51005 -14.15513 23047 ft 392 kts 224°
2026-04-28 15:50 28.48912 -14.17547 22666 ft 402 kts 224°
2026-04-28 15:50 28.46769 -14.19627 22331 ft 407 kts 224°
2026-04-28 15:51 28.44601 -14.21729 22011 ft 411 kts 224°
2026-04-28 15:51 28.42426 -14.23837 21711 ft 411 kts 223°
2026-04-28 15:51 28.40252 -14.25944 21406 ft 409 kts 223°
2026-04-28 15:51 28.38092 -14.28040 21117 ft 408 kts 223°
2026-04-28 15:52 28.35936 -14.30131 20820 ft 406 kts 223°
2026-04-28 15:52 28.33789 -14.32212 20522 ft 405 kts 223°
2026-04-28 15:52 28.31648 -14.34286 20247 ft 403 kts 223°
2026-04-28 15:52 28.29528 -14.36338 19963 ft 402 kts 223°
2026-04-28 15:53 28.27435 -14.38363 19679 ft 400 kts 223°
2026-04-28 15:53 28.25321 -14.40408 19399 ft 398 kts 223°
2026-04-28 15:53 28.23215 -14.42443 19117 ft 397 kts 223°
2026-04-28 15:53 28.21121 -14.44466 18850 ft 395 kts 223°
2026-04-28 15:54 28.19044 -14.46471 18487 ft 391 kts 223°
2026-04-28 15:54 28.16993 -14.48450 18379 ft 387 kts 223°
2026-04-28 15:54 28.14929 -14.50441 17712 ft 389 kts 222°
2026-04-28 15:54 28.12876 -14.52421 17284 ft 385 kts 222°
2026-04-28 15:55 28.10842 -14.54380 16780 ft 383 kts 223°
2026-04-28 15:55 28.08823 -14.56324 16352 ft 379 kts 222°
2026-04-28 15:55 28.06816 -14.58256 15888 ft 377 kts 222°
2026-04-28 15:55 28.04857 -14.60141 15461 ft 374 kts 222°
2026-04-28 15:56 28.02882 -14.62040 15130 ft 368 kts 222°
2026-04-28 15:56 28.00970 -14.63940 14821 ft 365 kts 227°
2026-04-28 15:56 27.99628 -14.66346 14300 ft 361 kts 252°
2026-04-28 15:56 27.99064 -14.69092 13840 ft 358 kts 259°
2026-04-28 15:57 27.98487 -14.71837 13368 ft 356 kts 257°
2026-04-28 15:57 27.97876 -14.74541 12904 ft 354 kts 254°
2026-04-28 15:57 27.96920 -14.77096 12463 ft 352 kts 245°
2026-04-28 15:57 27.95913 -14.79612 11986 ft 350 kts 248°
2026-04-28 15:58 27.94955 -14.82140 11547 ft 348 kts 249°
2026-04-28 15:58 27.94017 -14.84650 11113 ft 346 kts 249°
2026-04-28 15:58 27.93091 -14.87153 10790 ft 341 kts 249°
2026-04-28 15:58 27.92194 -14.89588 10598 ft 331 kts 249°
2026-04-28 15:59 27.91324 -14.91957 10402 ft 320 kts 249°
2026-04-28 15:59 27.90765 -14.93478 10205 ft 313 kts 250°
2026-04-28 15:59 27.89681 -14.96428 9855 ft 300 kts 250°
2026-04-28 15:59 27.88898 -14.98556 9579 ft 290 kts 250°
2026-04-28 16:00 27.88136 -15.00626 9332 ft 280 kts 250°
2026-04-28 16:00 27.87399 -15.02628 9148 ft 272 kts 250°
2026-04-28 16:00 27.86685 -15.04568 9018 ft 263 kts 249°
2026-04-28 16:00 27.85984 -15.06470 8688 ft 262 kts 250°
2026-04-28 16:01 27.85285 -15.08365 8384 ft 261 kts 250°
2026-04-28 16:01 27.84595 -15.10236 8217 ft 253 kts 250°
2026-04-28 16:01 27.83928 -15.12042 8046 ft 245 kts 249°
2026-04-28 16:01 27.83281 -15.13794 7779 ft 242 kts 250°
2026-04-28 16:02 27.82631 -15.15553 7437 ft 242 kts 250°
2026-04-28 16:02 27.81984 -15.17305 7132 ft 241 kts 249°
2026-04-28 16:02 27.81339 -15.19049 6819 ft 240 kts 250°
2026-04-28 16:02 27.80698 -15.20785 6546 ft 239 kts 250°
2026-04-28 16:03 27.80072 -15.22474 6307 ft 231 kts 250°
2026-04-28 16:03 27.79466 -15.24109 6082 ft 220 kts 250°
2026-04-28 16:03 27.78889 -15.25664 5855 ft 212 kts 250°
2026-04-28 16:03 27.78325 -15.27202 5421 ft 213 kts 247°
2026-04-28 16:04 27.77757 -15.28742 5070 ft 212 kts 247°
2026-04-28 16:04 27.77189 -15.30278 4700 ft 211 kts 247°
2026-04-28 16:04 27.76624 -15.31806 4340 ft 210 kts 247°
2026-04-28 16:04 27.76251 -15.32813 4139 ft 207 kts 247°
2026-04-28 16:05 27.75526 -15.34767 3822 ft 198 kts 247°
2026-04-28 16:05 27.75213 -15.36272 3450 ft 199 kts 271°
2026-04-28 16:05 27.75514 -15.37767 3235 ft 195 kts 292°
2026-04-28 16:05 27.76042 -15.39140 3076 ft 191 kts 292°
2026-04-28 16:06 27.76546 -15.40520 2875 ft 189 kts 291°
2026-04-28 16:06 27.76877 -15.41442 2769 ft 188 kts 291°
2026-04-28 16:06 27.77540 -15.43221 2603 ft 182 kts 301°
2026-04-28 16:06 27.78469 -15.44126 2493 ft 178 kts 339°
2026-04-28 16:07 27.79693 -15.44291 2419 ft 180 kts
2026-04-28 16:07 27.80537 -15.44188 2336 ft 180 kts 10°
2026-04-28 16:07 27.82897 -15.43291 1975 ft 179 kts 22°
2026-04-28 16:08 27.84002 -15.42780 1790 ft 161 kts 21°
2026-04-28 16:08 27.84994 -15.42333 1585 ft 150 kts 21°
2026-04-28 16:08 27.85959 -15.41901 1380 ft 148 kts 21°
2026-04-28 16:09 27.87870 -15.41047 992 ft 148 kts 21°
2026-04-28 16:09 27.88819 -15.40622 798 ft 147 kts 21°
2026-04-28 16:09 27.89767 -15.40195 597 ft 146 kts 22°
2026-04-28 16:10 27.91655 -15.39335 188 ft 146 kts 21°
2026-04-28 16:10 27.92569 -15.38932 75 ft 128 kts 21°
2026-04-28 16:10 27.93579 -15.38491 58 ft 30 kts 21°
2026-04-28 16:11 27.93932 -15.38435 54 ft 19 kts 351°
2026-04-28 16:11 27.93944 -15.38516 53 ft 10 kts 202°
2026-04-28 16:12 27.93800 -15.38579 54 ft 12 kts 201°
2026-04-28 16:12 27.93718 -15.38614 54 ft 13 kts 200°
2026-04-28 16:13 27.93530 -15.38698 55 ft 16 kts 202°
2026-04-28 16:13 27.93431 -15.38752 58 ft 16 kts 232°
2026-04-28 16:13 27.93518 -15.38866 60 ft 13 kts 13°
2026-04-28 16:14 27.93601 -15.38901 54 ft 6 kts 291°
2026-04-28 16:14 27.93606 -15.38916 57 ft 2 kts 291°
2026-04-28 16:15 27.93609 -15.38925 54 ft 0 kts 291°